| time (UTC) | temp C | wind direction | speed KPH | gust KPH | rain 1hr cm | rain 24hr cm | rain mn cm | humidity % | barometer mb |
| 20260510203230 | 30 | 227 | 9.7 | 17.7 | 0.00 | 0.00 | 0.00 | 27 | 1011.7 |
| 20260510202730 | 30 | 195 | 9.7 | 17.7 | 0.00 | 0.00 | 0.00 | 27 | 1011.6 |
| 20260510202230 | -17 | 0.0 | 0.0 | 0.00 | 0.00 | 0.00 | 1011.7 | ||
| 20260510201730 | -17 | 0.0 | 0.0 | 0.00 | 0.00 | 0.00 | 1011.7 | ||
| 20260510201221 | 29 | 238 | 9.7 | 16.1 | 0.00 | 0.00 | 0.00 | 28 | 1011.8 |
| 20260510200946 | 29 | 238 | 9.7 | 16.1 | 0.00 | 0.00 | 0.00 | 28 | 1011.8 |
| 20260510195708 | 29 | 180 | 11.3 | 25.7 | 0.00 | 0.00 | 0.00 | 27 | 1012.0 |
| 20260510195206 | 29 | 245 | 9.7 | 25.7 | 0.00 | 0.00 | 0.00 | 28 | 1012.0 |
| 20260510194709 | 30 | 235 | 11.3 | 22.5 | 0.00 | 0.00 | 0.00 | 27 | 1012.1 |
| 20260510194207 | 30 | 266 | 8.0 | 17.7 | 0.00 | 0.00 | 0.00 | 27 | 1012.2 |
| 20260510193705 | 30 | 254 | 8.0 | 17.7 | 0.00 | 0.00 | 0.00 | 27 | 1012.2 |
| 20260510193203 | 30 | 204 | 8.0 | 22.5 | 0.00 | 0.00 | 0.00 | 27 | 1012.4 |
| 20260510192931 | 29 | 293 | 11.3 | 24.1 | 0.00 | 0.00 | 0.00 | 27 | 1012.4 |
| 20260510192202 | 30 | 224 | 14.5 | 24.1 | 0.00 | 0.00 | 0.00 | 28 | 1012.3 |
| 20260510191703 | 30 | 202 | 8.0 | 19.3 | 0.00 | 0.00 | 0.00 | 28 | 1012.3 |
| 20260510191203 | 30 | 290 | 6.4 | 19.3 | 0.00 | 0.00 | 0.00 | 29 | 1012.4 |
| 20260510190704 | 30 | 140 | 4.8 | 16.1 | 0.00 | 0.00 | 0.00 | 29 | 1012.5 |
| 20260510190436 | 30 | 162 | 4.8 | 8.0 | 0.00 | 0.00 | 0.00 | 28 | 1012.6 |
| 20260510185700 | 30 | 193 | 3.2 | 20.9 | 0.00 | 0.00 | 0.00 | 28 | 1012.6 |
| 20260510185158 | 30 | 244 | 8.0 | 20.9 | 0.00 | 0.00 | 0.00 | 28 | 1012.7 |
| 20260510184659 | 29 | 203 | 11.3 | 14.5 | 0.00 | 0.00 | 0.00 | 29 | 1012.7 |
| 20260510184152 | 29 | 286 | 4.8 | 14.5 | 0.00 | 0.00 | 0.00 | 30 | 1012.7 |
| 20260510183652 | 29 | 223 | 4.8 | 17.7 | 0.00 | 0.00 | 0.00 | 28 | 1012.7 |
| 20260510183152 | 29 | 202 | 11.3 | 17.7 | 0.00 | 0.00 | 0.00 | 29 | 1012.7 |
| 20260510182653 | 28 | 217 | 6.4 | 16.1 | 0.00 | 0.00 | 0.00 | 29 | 1012.7 |
| 20260510182152 | 28 | 217 | 8.0 | 16.1 | 0.00 | 0.00 | 0.00 | 29 | 1012.7 |
| 20260510181653 | 28 | 204 | 8.0 | 16.1 | 0.00 | 0.00 | 0.00 | 29 | 1012.7 |
| 20260510181152 | 28 | 243 | 9.7 | 22.5 | 0.00 | 0.00 | 0.00 | 29 | 1012.8 |
| 20260510180653 | 28 | 212 | 12.9 | 22.5 | 0.00 | 0.00 | 0.00 | 29 | 1012.9 |
| 20260510180152 | 28 | 173 | 9.7 | 20.9 | 0.00 | 0.00 | 0.00 | 29 | 1012.9 |
| 20260510175653 | 28 | 209 | 11.3 | 20.9 | 0.00 | 0.00 | 0.00 | 28 | 1012.9 |
| 20260510175439 | 28 | 200 | 6.4 | 14.5 | 0.00 | 0.00 | 0.00 | 29 | 1013.0 |
| 20260510174653 | 28 | 185 | 8.0 | 19.3 | 0.00 | 0.00 | 0.00 | 30 | 1013.0 |
| 20260510174152 | 28 | 240 | 9.7 | 19.3 | 0.00 | 0.00 | 0.00 | 31 | 1012.9 |
| 20260510173653 | 28 | 231 | 8.0 | 19.3 | 0.00 | 0.00 | 0.00 | 30 | 1013.0 |
| 20260510173151 | 28 | 279 | 8.0 | 20.9 | 0.00 | 0.00 | 0.00 | 30 | 1013.0 |
| 20260510172653 | 28 | 188 | 4.8 | 20.9 | 0.00 | 0.00 | 0.00 | 32 | 1012.9 |
| 20260510172151 | 28 | 123 | 4.8 | 20.9 | 0.00 | 0.00 | 0.00 | 32 | 1012.9 |
| 20260510171652 | 28 | 172 | 12.9 | 20.9 | 0.00 | 0.00 | 0.00 | 32 | 1013.0 |
| 20260510171152 | 28 | 199 | 12.9 | 17.7 | 0.00 | 0.00 | 0.00 | 31 | 1013.1 |
| 20260510170653 | 28 | 288 | 6.4 | 16.1 | 0.00 | 0.00 | 0.00 | 32 | 1013.1 |
| 20260510170152 | 28 | 319 | 6.4 | 16.1 | 0.00 | 0.00 | 0.00 | 32 | 1013.3 |
| 20260510165653 | 27 | 262 | 3.2 | 9.7 | 0.00 | 0.00 | 0.00 | 32 | 1013.4 |
| 20260510165152 | 27 | 175 | 3.2 | 16.1 | 0.00 | 0.00 | 0.00 | 32 | 1013.3 |
| 20260510164652 | 28 | 233 | 8.0 | 16.1 | 0.00 | 0.00 | 0.00 | 32 | 1013.4 |
| 20260510164151 | 28 | 255 | 6.4 | 14.5 | 0.00 | 0.00 | 0.00 | 31 | 1013.5 |
| 20260510163653 | 28 | 223 | 4.8 | 14.5 | 0.00 | 0.00 | 0.00 | 31 | 1013.4 |
| 20260510163431 | 27 | 316 | 6.4 | 14.5 | 0.00 | 0.00 | 0.00 | 31 | 1013.5 |
| 20260510162654 | 27 | 316 | 6.4 | 14.5 | 0.00 | 0.00 | 0.00 | 30 | 1013.4 |
| 20260510162151 | 27 | 237 | 6.4 | 14.5 | 0.00 | 0.00 | 0.00 | 31 | 1013.5 |
| 20260510161916 | 27 | 182 | 8.0 | 14.5 | 0.00 | 0.00 | 0.00 | 32 | 1013.6 |
| 20260510161136 | 27 | 155 | 3.2 | 11.3 | 0.00 | 0.00 | 0.00 | 34 | 1013.7 |
| 20260510160631 | 27 | 180 | 3.2 | 9.7 | 0.00 | 0.00 | 0.00 | 35 | 1013.7 |
| 20260510160131 | 27 | 185 | 4.8 | 11.3 | 0.00 | 0.00 | 0.00 | 36 | 1013.7 |
| 20260510155905 | 26 | 188 | 3.2 | 11.3 | 0.00 | 0.00 | 0.00 | 37 | 1013.7 |
| 20260510155411 | 26 | 216 | 3.2 | 9.7 | 0.00 | 0.00 | 0.00 | 38 | 1013.7 |
| 20260510154631 | 26 | 231 | 3.2 | 16.1 | 0.00 | 0.00 | 0.00 | 37 | 1013.8 |
| 20260510154130 | 26 | 240 | 9.7 | 16.1 | 0.00 | 0.00 | 0.00 | 37 | 1013.8 |
| 20260510153922 | 27 | 247 | 9.7 | 14.5 | 0.00 | 0.00 | 0.00 | 37 | 1013.8 |
| 20260510153130 | 26 | 204 | 3.2 | 8.0 | 0.00 | 0.00 | 0.00 | 38 | 1013.8 |
| 20260510152625 | 26 | 203 | 4.8 | 8.0 | 0.00 | 0.00 | 0.00 | 38 | 1013.9 |
| 20260510152124 | 26 | 56 | 3.2 | 9.7 | 0.00 | 0.00 | 0.00 | 39 | 1013.9 |
| 20260510151620 | 26 | 58 | 4.8 | 9.7 | 0.00 | 0.00 | 0.00 | 40 | 1013.9 |
| 20260510151120 | 25 | 117 | 4.8 | 8.0 | 0.00 | 0.00 | 0.00 | 40 | 1014.0 |
| 20260510150618 | 25 | 231 | 6.4 | 9.7 | 0.00 | 0.00 | 0.00 | 41 | 1014.1 |
| 20260510150113 | 25 | 234 | 0.0 | 9.7 | 0.00 | 0.00 | 0.00 | 40 | 1014.1 |
| 20260510145844 | 25 | 271 | 6.4 | 11.3 | 0.00 | 0.00 | 0.00 | 42 | 1014.1 |
| 20260510145109 | 25 | 196 | 8.0 | 11.3 | 0.00 | 0.00 | 0.00 | 42 | 1014.0 |
| 20260510144608 | 25 | 214 | 6.4 | 9.7 | 0.00 | 0.00 | 0.00 | 41 | 1014.0 |
| 20260510144102 | 25 | 288 | 3.2 | 9.7 | 0.00 | 0.00 | 0.00 | 41 | 1013.9 |
| 20260510143604 | 25 | 176 | 4.8 | 9.7 | 0.00 | 0.00 | 0.00 | 43 | 1013.9 |
| 20260510143102 | 25 | 302 | 3.2 | 8.0 | 0.00 | 0.00 | 0.00 | 41 | 1013.8 |
| 20260510142607 | 24 | 302 | 1.6 | 8.0 | 0.00 | 0.00 | 0.00 | 42 | 1013.8 |
| 20260510142102 | 24 | 302 | 4.8 | 8.0 | 0.00 | 0.00 | 0.00 | 43 | 1013.8 |
| 20260510141600 | 24 | 303 | 4.8 | 8.0 | 0.00 | 0.00 | 0.00 | 42 | 1013.8 |
| 20260510141057 | 24 | 305 | 1.6 | 8.0 | 0.00 | 0.00 | 0.00 | 43 | 1013.8 |
| 20260510140606 | 24 | 305 | 1.6 | 6.4 | 0.00 | 0.00 | 0.00 | 44 | 1013.8 |
| 20260510140052 | 23 | 305 | 1.6 | 6.4 | 0.00 | 0.00 | 0.00 | 48 | 1013.8 |
| 20260510135553 | 23 | 305 | 0.0 | 8.0 | 0.00 | 0.00 | 0.00 | 49 | 1013.8 |
| 20260510135051 | 23 | 305 | 4.8 | 8.0 | 0.00 | 0.00 | 0.00 | 49 | 1013.8 |
| 20260510134824 | 22 | 305 | 0.0 | 6.4 | 0.00 | 0.00 | 0.00 | 52 | 1013.7 |
| 20260510134051 | 22 | 305 | 3.2 | 8.0 | 0.00 | 0.00 | 0.00 | 52 | 1013.7 |
| 20260510133548 | 22 | 305 | 4.8 | 8.0 | 0.00 | 0.00 | 0.00 | 54 | 1013.8 |
| 20260510133048 | 21 | 307 | 4.8 | 8.0 | 0.00 | 0.00 | 0.00 | 54 | 1013.7 |
| 20260510132548 | 21 | 309 | 3.2 | 8.0 | 0.00 | 0.00 | 0.00 | 57 | 1013.9 |
| 20260510132048 | 21 | 309 | 6.4 | 11.3 | 0.00 | 0.00 | 0.00 | 57 | 1013.9 |
| 20260510131825 | 21 | 314 | 8.0 | 11.3 | 0.00 | 0.00 | 0.00 | 57 | 1013.9 |
| 20260510131046 | 20 | 258 | 3.2 | 8.0 | 0.00 | 0.00 | 0.00 | 59 | 1013.9 |
| 20260510130547 | 20 | 258 | 3.2 | 8.0 | 0.00 | 0.00 | 0.00 | 60 | 1013.9 |
| 20260510130047 | 20 | 258 | 4.8 | 8.0 | 0.00 | 0.00 | 0.00 | 61 | 1013.6 |
| 20260510125540 | 20 | 252 | 4.8 | 9.7 | 0.00 | 0.00 | 0.00 | 62 | 1013.5 |
| 20260510125039 | 19 | 250 | 6.4 | 8.0 | 0.00 | 0.00 | 0.00 | 63 | 1013.5 |
| 20260510124532 | 19 | 258 | 6.4 | 9.7 | 0.00 | 0.00 | 0.00 | 64 | 1013.6 |
| 20260510124303 | 19 | 292 | 6.4 | 9.7 | 0.00 | 0.00 | 0.00 | 66 | 1013.5 |
| 20260510123529 | 18 | 227 | 6.4 | 9.7 | 0.00 | 0.00 | 0.00 | 67 | 1013.6 |
| 20260510123029 | 18 | 250 | 3.2 | 11.3 | 0.00 | 0.00 | 0.00 | 67 | 1013.6 |
| 20260510122530 | 18 | 233 | 8.0 | 11.3 | 0.00 | 0.00 | 0.00 | 68 | 1013.5 |
| 20260510122030 | 18 | 272 | 6.4 | 9.7 | 0.00 | 0.00 | 0.00 | 68 | 1013.4 |
| 20260510121530 | 18 | 244 | 6.4 | 9.7 | 0.00 | 0.00 | 0.00 | 69 | 1013.2 |
| 20260510121031 | 18 | 265 | 6.4 | 11.3 | 0.00 | 0.00 | 0.00 | 69 | 1013.0 |
| 20260510120528 | 18 | 269 | 4.8 | 11.3 | 0.00 | 0.00 | 0.00 | 70 | 1013.0 |
| 20260510120025 | 17 | 245 | 6.4 | 11.3 | 0.00 | 0.00 | 0.00 | 70 | 1013.0 |
| 20260510115801 | 17 | 290 | 1.6 | 11.3 | 0.00 | 0.00 | 0.00 | 71 | 1013.0 |
| 20260510115026 | 17 | 274 | 8.0 | 11.3 | 0.00 | 0.00 | 0.00 | 71 | 1012.9 |
| 20260510114520 | 17 | 293 | 6.4 | 9.7 | 0.00 | 0.00 | 0.00 | 72 | 1012.8 |
| 20260510114019 | 17 | 299 | 3.2 | 9.7 | 0.00 | 0.00 | 0.00 | 74 | 1012.7 |
| 20260510113508 | 17 | 299 | 6.4 | 9.7 | 0.00 | 0.00 | 0.00 | 74 | 1012.7 |
| 20260510113237 | 16 | 275 | 6.4 | 9.7 | 0.00 | 0.00 | 0.00 | 76 | 1012.6 |
| 20260510112503 | 16 | 288 | 6.4 | 9.7 | 0.00 | 0.00 | 0.00 | 77 | 1012.5 |
| 20260510112001 | 16 | 279 | 3.2 | 8.0 | 0.00 | 0.00 | 0.00 | 78 | 1012.4 |
| 20260510111504 | 16 | 279 | 3.2 | 8.0 | 0.00 | 0.00 | 0.00 | 79 | 1012.5 |
| 20260510110957 | 16 | 278 | 3.2 | 8.0 | 0.00 | 0.00 | 0.00 | 79 | 1012.4 |
| 20260510110453 | 16 | 276 | 3.2 | 8.0 | 0.00 | 0.00 | 0.00 | 80 | 1012.3 |
| 20260510105952 | 16 | 272 | 4.8 | 9.7 | 0.00 | 0.00 | 0.00 | 80 | 1012.3 |
| 20260510105452 | 16 | 272 | 3.2 | 9.7 | 0.00 | 0.00 | 0.00 | 80 | 1012.2 |
| 20260510104952 | 16 | 269 | 1.6 | 8.0 | 0.00 | 0.00 | 0.00 | 80 | 1012.2 |
| 20260510104451 | 16 | 268 | 4.8 | 8.0 | 0.00 | 0.00 | 0.00 | 81 | 1012.1 |
| 20260510104226 | 16 | 233 | 3.2 | 8.0 | 0.00 | 0.00 | 0.00 | 81 | 1012.0 |
| 20260510103451 | 16 | 233 | 3.2 | 8.0 | 0.00 | 0.00 | 0.00 | 80 | 1012.0 |
| 20260510102953 | 15 | 233 | 3.2 | 8.0 | 0.00 | 0.00 | 0.00 | 80 | 1011.9 |
| 20260510102451 | 15 | 233 | 4.8 | 8.0 | 0.00 | 0.00 | 0.00 | 80 | 1011.8 |
| 20260510101952 | 15 | 233 | 3.2 | 6.4 | 0.00 | 0.00 | 0.00 | 80 | 1011.8 |
| 20260510101438 | 15 | 233 | 3.2 | 4.8 | 0.00 | 0.00 | 0.00 | 81 | 1011.7 |
| 20260510100937 | 16 | 233 | 3.2 | 3.2 | 0.00 | 0.00 | 0.00 | 81 | 1011.6 |
| 20260510100431 | 16 | 233 | 3.2 | 6.4 | 0.00 | 0.00 | 0.00 | 81 | 1011.4 |
| 20260510095930 | 16 | 233 | 3.2 | 6.4 | 0.00 | 0.00 | 0.00 | 81 | 1011.3 |
| 20260510095705 | 16 | 233 | 4.8 | 6.4 | 0.00 | 0.00 | 0.00 | 81 | 1011.3 |
| 20260510094928 | 16 | 233 | 3.2 | 4.8 | 0.00 | 0.00 | 0.00 | 81 | 1011.4 |
| 20260510094436 | 16 | 233 | 0.0 | 4.8 | 0.00 | 0.00 | 0.00 | 81 | 1011.3 |
| 20260510093659 | 16 | 233 | 1.6 | 4.8 | 0.00 | 0.00 | 0.00 | 81 | 1011.3 |
| 20260510092923 | 16 | 233 | 1.6 | 6.4 | 0.00 | 0.00 | 0.00 | 81 | 1011.3 |
| 20260510092422 | 16 | 233 | 3.2 | 6.4 | 0.00 | 0.00 | 0.00 | 81 | 1011.2 |
| 20260510091924 | 16 | 233 | 4.8 | 6.4 | 0.00 | 0.00 | 0.00 | 80 | 1011.3 |
| 20260510091655 | 16 | 233 | 0.0 | 0.0 | 0.00 | 0.00 | 0.00 | 80 | 1011.3 |
| 20260510090924 | 16 | 233 | 0.0 | 0.0 | 0.00 | 0.00 | 0.00 | 80 | 1011.1 |
| 20260510090422 | 16 | 233 | 0.0 | 4.8 | 0.00 | 0.00 | 0.00 | 79 | 1011.1 |
| 20260510090203 | 16 | 233 | 0.0 | 4.8 | 0.00 | 0.00 | 0.00 | 79 | 1010.9 |
| 20260510085421 | 16 | 233 | 1.6 | 4.8 | 0.00 | 0.00 | 0.00 | 79 | 1010.8 |
| 20260510084923 | 16 | 233 | 3.2 | 4.8 | 0.00 | 0.00 | 0.00 | 79 | 1010.9 |
| 20260510084421 | 16 | 233 | 1.6 | 4.8 | 0.00 | 0.00 | 0.00 | 78 | 1010.9 |
| 20260510083920 | 16 | 233 | 1.6 | 6.4 | 0.00 | 0.00 | 0.00 | 78 | 1010.8 |
| 20260510083419 | 17 | 233 | 1.6 | 6.4 | 0.00 | 0.00 | 0.00 | 78 | 1010.8 |
| 20260510082917 | 17 | 233 | 1.6 | 6.4 | 0.00 | 0.00 | 0.00 | 78 | 1010.8 |
| 20260510082403 | 17 | 233 | 1.6 | 6.4 | 0.00 | 0.00 | 0.00 | 78 | 1010.9 |
| 20260510081903 | 17 | 233 | 1.6 | 3.2 | 0.00 | 0.00 | 0.00 | 77 | 1010.7 |
| 20260510081402 | 17 | 233 | 1.6 | 6.4 | 0.00 | 0.00 | 0.00 | 77 | 1010.8 |
| 20260510081153 | 17 | 233 | 3.2 | 6.4 | 0.00 | 0.00 | 0.00 | 77 | 1010.7 |
| 20260510080403 | 17 | 233 | 3.2 | 6.4 | 0.00 | 0.00 | 0.00 | 77 | 1010.7 |
| 20260510075902 | 17 | 233 | 1.6 | 4.8 | 0.00 | 0.00 | 0.00 | 77 | 1010.7 |
| 20260510075639 | 17 | 233 | 3.2 | 4.8 | 0.00 | 0.00 | 0.00 | 76 | 1010.6 |
| 20260510074901 | 17 | 233 | 3.2 | 4.8 | 0.00 | 0.00 | 0.00 | 76 | 1010.6 |
| 20260510074401 | 17 | 233 | 3.2 | 4.8 | 0.00 | 0.00 | 0.00 | 76 | 1010.5 |
| 20260510073901 | 17 | 233 | 3.2 | 6.4 | 0.00 | 0.00 | 0.00 | 76 | 1010.5 |
| 20260510073401 | 17 | 233 | 3.2 | 6.4 | 0.00 | 0.00 | 0.00 | 76 | 1010.5 |
| 20260510073126 | 17 | 233 | 3.2 | 4.8 | 0.00 | 0.00 | 0.00 | 75 | 1010.5 |
| 20260510072401 | 18 | 233 | 1.6 | 6.4 | 0.00 | 0.00 | 0.00 | 75 | 1010.6 |
| 20260510071902 | 18 | 233 | 3.2 | 6.4 | 0.00 | 0.00 | 0.00 | 75 | 1010.6 |
| 20260510071401 | 18 | 233 | 3.2 | 6.4 | 0.00 | 0.00 | 0.00 | 75 | 1010.5 |
| 20260510071139 | 18 | 233 | 4.8 | 8.0 | 0.00 | 0.00 | 0.00 | 74 | 1010.6 |
| 20260510070402 | 18 | 233 | 4.8 | 9.7 | 0.00 | 0.00 | 0.00 | 74 | 1010.5 |
| 20260510065902 | 18 | 233 | 6.4 | 9.7 | 0.00 | 0.00 | 0.00 | 74 | 1010.5 |
| 20260510065402 | 18 | 238 | 4.8 | 9.7 | 0.00 | 0.00 | 0.00 | 74 | 1010.5 |
| 20260510064902 | 18 | 285 | 6.4 | 16.1 | 0.00 | 0.00 | 0.00 | 74 | 1010.5 |
| 20260510064355 | 18 | 238 | 6.4 | 16.1 | 0.00 | 0.00 | 0.00 | 74 | 1010.5 |
| 20260510063845 | 18 | 234 | 6.4 | 14.5 | 0.00 | 0.00 | 0.00 | 74 | 1010.6 |
| 20260510063344 | 18 | 233 | 6.4 | 14.5 | 0.00 | 0.00 | 0.00 | 74 | 1010.6 |
| 20260510062850 | 18 | 234 | 8.0 | 16.1 | 0.00 | 0.00 | 0.00 | 74 | 1010.6 |
| 20260510061835 | 18 | 238 | 9.7 | 17.7 | 0.00 | 0.00 | 0.00 | 73 | 1010.6 |
| 20260510061606 | 19 | 248 | 9.7 | 14.5 | 0.00 | 0.00 | 0.00 | 73 | 1010.6 |
| 20260510060833 | 19 | 221 | 8.0 | 17.7 | 0.00 | 0.00 | 0.00 | 72 | 1010.7 |
| 20260510060330 | 19 | 202 | 8.0 | 17.7 | 0.00 | 0.00 | 0.00 | 73 | 1010.6 |
| 20260510055831 | 19 | 245 | 11.3 | 19.3 | 0.00 | 0.00 | 0.00 | 72 | 1010.6 |
| 20260510055331 | 19 | 233 | 9.7 | 22.5 | 0.00 | 0.00 | 0.00 | 72 | 1010.4 |
| 20260510054830 | 19 | 206 | 12.9 | 22.5 | 0.00 | 0.00 | 0.00 | 72 | 1010.5 |
| 20260510054331 | 19 | 231 | 12.9 | 22.5 | 0.00 | 0.00 | 0.00 | 72 | 1010.6 |
| 20260510053829 | 19 | 247 | 8.0 | 17.7 | 0.00 | 0.00 | 0.00 | 71 | 1010.7 |
| 20260510053330 | 20 | 257 | 8.0 | 17.7 | 0.00 | 0.00 | 0.00 | 71 | 1010.6 |
| 20260510052830 | 20 | 224 | 11.3 | 20.9 | 0.00 | 0.00 | 0.00 | 71 | 1010.6 |
| 20260510052329 | 20 | 238 | 11.3 | 20.9 | 0.00 | 0.00 | 0.00 | 71 | 1010.6 |
| 20260510051830 | 20 | 235 | 14.5 | 20.9 | 0.00 | 0.00 | 0.00 | 70 | 1010.6 |
| 20260510051330 | 20 | 238 | 11.3 | 19.3 | 0.00 | 0.00 | 0.00 | 70 | 1010.6 |
| 20260510051103 | 20 | 207 | 9.7 | 17.7 | 0.00 | 0.00 | 0.00 | 70 | 1010.6 |
| 20260510050612 | 20 | 214 | 11.3 | 17.7 | 0.00 | 0.00 | 0.00 | 70 | 1010.6 |
| 20260510045831 | -17 | 0.0 | 0.0 | 0.00 | 0.00 | 0.00 | 1010.5 | ||
| 20260510045330 | -17 | 0.0 | 0.0 | 0.00 | 0.00 | 0.00 | 1010.7 | ||
| 20260510045102 | 20 | 234 | 9.7 | 17.7 | 0.00 | 0.00 | 0.00 | 70 | 1010.6 |
| 20260510044330 | 20 | 234 | 9.7 | 19.3 | 0.00 | 0.00 | 0.00 | 70 | 1010.7 |
| 20260510043816 | 20 | 214 | 8.0 | 19.3 | 0.00 | 0.00 | 0.00 | 70 | 1010.7 |
| 20260510043547 | 20 | 234 | 9.7 | 17.7 | 0.00 | 0.00 | 0.00 | 69 | 1010.7 |
| 20260510043056 | 20 | 254 | 6.4 | 14.5 | 0.00 | 0.00 | 0.00 | 69 | 1010.6 |
| 20260510042309 | 20 | 238 | 8.0 | 14.5 | 0.00 | 0.00 | 0.00 | 69 | 1010.6 |
| 20260510041804 | 20 | 217 | 8.0 | 14.5 | 0.00 | 0.00 | 0.00 | 68 | 1010.5 |
| 20260510041303 | 20 | 204 | 9.7 | 19.3 | 0.00 | 0.00 | 0.00 | 68 | 1010.6 |
| 20260510040302 | 20 | 234 | 9.7 | 11.3 | 0.00 | 0.00 | 0.00 | 68 | 1010.5 |
| 20260510040024 | 20 | 220 | 9.7 | 17.7 | 0.00 | 0.00 | 0.00 | 67 | 1010.4 |
| 20260510035232 | 20 | 193 | 8.0 | 17.7 | 0.00 | 0.00 | 0.00 | 67 | 1010.4 |
| 20260510034730 | 20 | 244 | 9.7 | 16.1 | 0.00 | 0.00 | 0.00 | 66 | 1010.4 |
| 20260510034231 | 20 | 178 | 6.4 | 14.5 | 0.00 | 0.00 | 0.00 | 66 | 1010.4 |
| 20260510033730 | 20 | 237 | 6.4 | 14.5 | 0.00 | 0.00 | 0.00 | 66 | 1010.4 |
| 20260510033232 | 20 | 206 | 8.0 | 17.7 | 0.00 | 0.00 | 0.00 | 65 | 1010.2 |
| 20260510032725 | 20 | 230 | 8.0 | 20.9 | 0.00 | 0.00 | 0.00 | 65 | 1010.4 |
| 20260510032219 | 20 | 207 | 8.0 | 20.9 | 0.00 | 0.00 | 0.00 | 65 | 1010.4 |
| 20260510031712 | 20 | 199 | 9.7 | 14.5 | 0.00 | 0.00 | 0.00 | 64 | 1010.2 |
| 20260510031207 | 20 | 197 | 4.8 | 11.3 | 0.00 | 0.00 | 0.00 | 64 | 1010.2 |
| 20260510030703 | 20 | 193 | 4.8 | 11.3 | 0.00 | 0.00 | 0.00 | 64 | 1010.2 |
| 20260510030202 | 20 | 200 | 6.4 | 16.1 | 0.00 | 0.00 | 0.00 | 64 | 1010.2 |
| 20260510025703 | 20 | 216 | 9.7 | 16.1 | 0.00 | 0.00 | 0.00 | 64 | 1010.1 |
| 20260510025202 | 20 | 231 | 6.4 | 16.1 | 0.00 | 0.00 | 0.00 | 64 | 1010.0 |
| 20260510024702 | 20 | 206 | 6.4 | 25.7 | 0.00 | 0.00 | 0.00 | 64 | 1010.0 |
| 20260510024201 | 20 | 202 | 9.7 | 25.7 | 0.00 | 0.00 | 0.00 | 63 | 1010.1 |
| 20260510023703 | 20 | 173 | 4.8 | 16.1 | 0.00 | 0.00 | 0.00 | 63 | 1009.9 |
| 20260510023202 | 20 | 197 | 8.0 | 16.1 | 0.00 | 0.00 | 0.00 | 62 | 1009.9 |
| 20260510022703 | 20 | 204 | 6.4 | 11.3 | 0.00 | 0.00 | 0.00 | 62 | 1009.8 |
| 20260510022203 | 20 | 199 | 6.4 | 9.7 | 0.00 | 0.00 | 0.00 | 62 | 1009.8 |
| 20260510021701 | 20 | 200 | 6.4 | 9.7 | 0.00 | 0.00 | 0.00 | 62 | 1009.8 |
| 20260510021202 | 21 | 196 | 6.4 | 14.5 | 0.00 | 0.00 | 0.00 | 61 | 1009.7 |
| 20260510020928 | 21 | 200 | 8.0 | 14.5 | 0.00 | 0.00 | 0.00 | 61 | 1009.7 |
| 20260510020203 | 21 | 197 | 6.4 | 14.5 | 0.00 | 0.00 | 0.00 | 60 | 1009.6 |
| 20260510015657 | 21 | 186 | 9.7 | 17.7 | 0.00 | 0.00 | 0.00 | 60 | 1009.4 |
| 20260510015152 | 21 | 213 | 4.8 | 17.7 | 0.00 | 0.00 | 0.00 | 60 | 1009.4 |
| 20260510014640 | 21 | 183 | 8.0 | 16.1 | 0.00 | 0.00 | 0.00 | 60 | 1009.4 |
| 20260510014138 | 21 | 192 | 8.0 | 14.5 | 0.00 | 0.00 | 0.00 | 59 | 1009.2 |
| 20260510013636 | 21 | 182 | 9.7 | 16.1 | 0.00 | 0.00 | 0.00 | 59 | 1009.2 |
| 20260510013136 | 21 | 175 | 8.0 | 16.1 | 0.00 | 0.00 | 0.00 | 58 | 1009.2 |
| 20260510012633 | 21 | 186 | 9.7 | 14.5 | 0.00 | 0.00 | 0.00 | 58 | 1009.3 |
| 20260510012144 | 21 | 190 | 6.4 | 9.7 | 0.00 | 0.00 | 0.00 | 58 | 1009.2 |
| 20260510011131 | 21 | 190 | 6.4 | 11.3 | 0.00 | 0.00 | 0.00 | 57 | 1009.1 |
| 20260510010631 | 21 | 179 | 8.0 | 11.3 | 0.00 | 0.00 | 0.00 | 57 | 1009.0 |
| 20260510010129 | 22 | 178 | 4.8 | 9.7 | 0.00 | 0.00 | 0.00 | 56 | 1009.0 |
| 20260510005630 | 22 | 200 | 4.8 | 9.7 | 0.00 | 0.00 | 0.00 | 56 | 1008.9 |
| 20260510005129 | 22 | 178 | 6.4 | 9.7 | 0.00 | 0.00 | 0.00 | 55 | 1009.0 |
| 20260510004630 | 22 | 176 | 6.4 | 9.7 | 0.00 | 0.00 | 0.00 | 55 | 1008.8 |
| 20260510004130 | 22 | 183 | 4.8 | 8.0 | 0.00 | 0.00 | 0.00 | 54 | 1008.8 |
| 20260510003905 | 22 | 183 | 4.8 | 6.4 | 0.00 | 0.00 | 0.00 | 54 | 1008.7 |
| 20260510003129 | 22 | 183 | 4.8 | 8.0 | 0.00 | 0.00 | 0.00 | 53 | 1008.7 |
| 20260510002907 | 22 | 183 | 6.4 | 8.0 | 0.00 | 0.00 | 0.00 | 53 | 1008.6 |
| 20260510002125 | 23 | 183 | 3.2 | 8.0 | 0.00 | 0.00 | 0.00 | 52 | 1008.5 |
| 20260510001626 | 23 | 183 | 4.8 | 6.4 | 0.00 | 0.00 | 0.00 | 51 | 1008.5 |
| 20260510001118 | 23 | 183 | 3.2 | 8.0 | 0.00 | 0.00 | 0.00 | 51 | 1008.3 |
| 20260510000613 | 23 | 183 | 6.4 | 11.3 | 0.00 | 0.00 | 0.00 | 51 | 1008.3 |
| 20260510000111 | 23 | 176 | 4.8 | 11.3 | 0.00 | 0.00 | 0.00 | 50 | 1008.4 |
| 20260509235602 | 23 | 223 | 3.2 | 11.3 | 0.00 | 0.00 | 0.00 | 49 | 1008.2 |
| 20260509235103 | 23 | 185 | 8.0 | 11.3 | 0.00 | 0.00 | 0.00 | 49 | 1008.2 |
| 20260509234604 | 24 | 179 | 6.4 | 9.7 | 0.00 | 0.00 | 0.00 | 48 | 1008.0 |
| 20260509234103 | 24 | 204 | 6.4 | 14.5 | 0.00 | 0.00 | 0.00 | 47 | 1008.0 |
| 20260509233601 | 24 | 209 | 3.2 | 14.5 | 0.00 | 0.00 | 0.00 | 47 | 1008.1 |
| 20260509233101 | 24 | 193 | 4.8 | 11.3 | 0.00 | 0.00 | 0.00 | 47 | 1008.2 |
| 20260509232602 | 24 | 212 | 6.4 | 11.3 | 0.00 | 0.00 | 0.00 | 46 | 1008.2 |
| 20260509232057 | 24 | 209 | 4.8 | 14.5 | 0.00 | 0.00 | 0.00 | 46 | 1008.2 |
| 20260509231542 | 24 | 189 | 6.4 | 16.1 | 0.00 | 0.00 | 0.00 | 46 | 1008.2 |
| 20260509231039 | 25 | 199 | 6.4 | 16.1 | 0.00 | 0.00 | 0.00 | 45 | 1008.1 |
| 20260509230539 | 25 | 206 | 6.4 | 16.1 | 0.00 | 0.00 | 0.00 | 45 | 1008.1 |
| 20260509230031 | 25 | 212 | 6.4 | 11.3 | 0.00 | 0.00 | 0.00 | 44 | 1008.2 |
| 20260509225530 | 25 | 185 | 4.8 | 14.5 | 0.00 | 0.00 | 0.00 | 44 | 1008.1 |
| 20260509225306 | 25 | 243 | 8.0 | 17.7 | 0.00 | 0.00 | 0.00 | 44 | 1008.0 |
| 20260509224530 | 25 | 200 | 9.7 | 17.7 | 0.00 | 0.00 | 0.00 | 43 | 1007.9 |
| 20260509224030 | 25 | 213 | 6.4 | 16.1 | 0.00 | 0.00 | 0.00 | 43 | 1008.0 |
| 20260509223529 | 25 | 238 | 9.7 | 20.9 | 0.00 | 0.00 | 0.00 | 43 | 1007.9 |
| 20260509223031 | 25 | 221 | 12.9 | 20.9 | 0.00 | 0.00 | 0.00 | 43 | 1007.9 |
| 20260509222529 | 25 | 210 | 9.7 | 19.3 | 0.00 | 0.00 | 0.00 | 44 | 1007.9 |
| 20260509222035 | 25 | 224 | 6.4 | 17.7 | 0.00 | 0.00 | 0.00 | 44 | 1007.9 |
| 20260509221529 | 25 | 230 | 11.3 | 17.7 | 0.00 | 0.00 | 0.00 | 44 | 1008.0 |
| 20260509221030 | 25 | 199 | 9.7 | 14.5 | 0.00 | 0.00 | 0.00 | 45 | 1008.0 |
| 20260509220528 | 25 | 224 | 8.0 | 11.3 | 0.00 | 0.00 | 0.00 | 45 | 1008.0 |
| 20260509220030 | 25 | 199 | 6.4 | 11.3 | 0.00 | 0.00 | 0.00 | 46 | 1008.0 |
| 20260509215530 | 25 | 204 | 6.4 | 16.1 | 0.00 | 0.00 | 0.00 | 46 | 1008.0 |
| 20260509215031 | 25 | 227 | 8.0 | 16.1 | 0.00 | 0.00 | 0.00 | 46 | 1008.0 |
| 20260509214806 | 24 | 247 | 6.4 | 14.5 | 0.00 | 0.00 | 0.00 | 46 | 1007.8 |
| 20260509214031 | 25 | 240 | 8.0 | 20.9 | 0.00 | 0.00 | 0.00 | 45 | 1007.8 |
| 20260509213530 | 25 | 251 | 11.3 | 20.9 | 0.00 | 0.00 | 0.00 | 45 | 1007.9 |
| 20260509213031 | 25 | 209 | 11.3 | 19.3 | 0.00 | 0.00 | 0.00 | 44 | 1007.8 |
| 20260509212529 | 25 | 189 | 11.3 | 17.7 | 0.00 | 0.00 | 0.00 | 45 | 1007.9 |
| 20260509212030 | 25 | 195 | 9.7 | 24.1 | 0.00 | 0.00 | 0.00 | 44 | 1007.9 |
| 20260509211530 | 25 | 196 | 9.7 | 24.1 | 0.00 | 0.00 | 0.00 | 44 | 1007.9 |
| 20260509211308 | 25 | 195 | 11.3 | 22.5 | 0.00 | 0.00 | 0.00 | 45 | 1007.9 |
| 20260509210529 | 25 | 182 | 11.3 | 22.5 | 0.00 | 0.00 | 0.00 | 44 | 1007.9 |
| 20260509210031 | 25 | 190 | 11.3 | 20.9 | 0.00 | 0.00 | 0.00 | 45 | 1008.0 |
| 20260509205529 | 25 | 164 | 11.3 | 24.1 | 0.00 | 0.00 | 0.00 | 45 | 1007.9 |
| 20260509205031 | 25 | 216 | 16.1 | 24.1 | 0.00 | 0.00 | 0.00 | 44 | 1007.7 |
| 20260509204529 | 25 | 245 | 9.7 | 22.5 | 0.00 | 0.00 | 0.00 | 45 | 1007.8 |
| 20260509204031 | 25 | 213 | 14.5 | 22.5 | 0.00 | 0.00 | 0.00 | 44 | 1007.7 |